Погода в Деръа

Сирия     32°37′05″N   36°06′18″E
темп.,
°C
ветер,
м/с
пор.,
м/с
влажн.,
%
обл.,
%
осадки,
мм/ч
давл.,
гПа
погр.,
м
21 января, пт
пт2123:00+2зюз33755 0.0 102927
02:00+2ююз22789 0.0 102913
05:00+2ююз22805 0.0 102812
08:00+4ю23755 0.0 102990
11:00+7ююв32624 0.0 1028697
14:00+9ююв33524 0.0 1025934
17:00+7юв33570 0.0 102441
20:00+6юв44610 0.0 102550
22 января, сб
сб2223:00+5ююв48683 0.0 1026154
02:00+3юв48680 0.0 1024142
05:00+3ююв45665 0.0 102364
08:00+4ююв35624 0.0 1023159
11:00+8ю23450 0.0 1021672
14:00+10зсз43412 0.0 10181273
17:00+7зсз45699 0.0 1019115
20:00+6юз34743 0.0 102067
23 января, вс
вс2323:00+5ю33755 0.0 101929
02:00+4ююз33755 0.0 101827
05:00+4ююз448115 0.0 101751
08:00+5ю48767 0.0 1017318
11:00+10юз710533 0.0 10151132
14:00+10юз11145323 0.0 10141290
17:00+8юз1118749 0.1 1013821
20:00+6зсз81193100 7.0 10161148
24 января, пн
пн2423:00+4зсз81293100 1.6 1018881
02:00+4з61194100 2.5 1019871
05:00+4з61093100 0.6 1020884
08:00+4з61095100 1.8 1022736
11:00+5з8108082 0.4 1023945
14:00+7зсз8115896 0.6 10221589
17:00+6зсз576361 0.0 1024394
20:00+4ююз11725 0.0 102514
25 января, вт
вт2523:00+4ю22725 0.0 102616
02:00+3ююв22735 0.0 102512
05:00+3ююв33750 0.0 102430
08:00+4ююв48745 0.0 1025295
11:00+8юв79575 0.0 1023816
14:00+10ююв785014 0.0 10191340
17:00+8юв345954 0.0 101856
20:00+8з236627 0.0 101950